This is the latest recevied weather packets stored in our database for station/object OE6JUE. If no packets are shown the sender has not sent any weather packets the latest 10 day(s).
| Time | Temp. | Humidity | Pressure | Rain* | Wind** | Luminosity | Snow |
|---|---|---|---|---|---|---|---|
| 1777785858 | 16.11° C | 55% | 1019.9 hPa | 0 mm | - | - | - |
| 1777785557 | 16.11° C | 59% | 1020 hPa | 0 mm | - | - | - |
| 1777785257 | 15.56° C | 60% | 1019.9 hPa | 0 mm | - | - | - |
| 1777784958 | 15° C | 63% | 1020 hPa | 0 mm | - | - | - |
| 1777784658 | 13.89° C | 61% | 1019.9 hPa | 0 mm | - | - | - |
| 1777784513 | 13.89° C | 61% | 1019.9 hPa | - | - | - | - |
| 1777784213 | 13.33° C | 62% | 1019.9 hPa | 0 mm | - | - | - |
| 1777783913 | 13.33° C | 67% | 1019.9 hPa | 0 mm | - | - | - |
| 1777783613 | 12.22° C | 72% | 1019.8 hPa | 0 mm | - | - | - |
| 1777783314 | 11.11° C | 74% | 1019.9 hPa | 0 mm | - | - | - |
| 1777783140 | 10.56° C | 75% | 1019.8 hPa | 0 mm | - | - | - |
| 1777782840 | 10° C | 81% | 1019.7 hPa | 0 mm | - | - | - |
| 1777782708 | 10° C | 81% | 1019.7 hPa | 0 mm | - | - | - |
| 1777782408 | 9.44° C | 81% | 1019.8 hPa | 0 mm | - | - | - |
| 1777782107 | 8.33° C | 82% | 1019.8 hPa | 0 mm | - | - | - |
| 1777781807 | 7.22° C | 87% | 1019.8 hPa | 0 mm | - | - | - |
| 1777781508 | 6.67° C | 87% | 1019.7 hPa | 0 mm | - | - | - |
| 1777781208 | 6.11° C | 86% | 1019.8 hPa | 0 mm | - | - | - |
| 1777780907 | 6.11° C | 85% | 1019.7 hPa | - | - | - | - |
| 1777780608 | 5.56° C | 84% | 1019.8 hPa | 0 mm | - | - | - |
| 1777780307 | 5.56° C | 84% | 1019.8 hPa | 0 mm | - | - | - |
| 1777780007 | 5.56° C | 84% | 1019.8 hPa | 0 mm | - | - | - |
| 1777779707 | 5.56° C | 84% | 1019.8 hPa | 0 mm | - | - | - |
| 1777779407 | 5.56° C | 84% | 1019.8 hPa | 0 mm | - | - | - |
| 1777779107 | 5.56° C | 84% | 1019.7 hPa | 0 mm | - | - | - |
* Rain latest hour (hover to see other rain measurements)
** Current wind speed in m/s (hover to see current wind gust speed)